Weather History for KHUL - July, 2013

Change the Weather History Date:

Saturday, July 6, 2013

  Actual Average Record
Temperature  
Mean Temperature 76 °F 65 °F  
Max Temperature 86 °F 77 °F 93 °F (1976)
Min Temperature 66 °F 53 °F 35 °F (1969)
Degree Days  
Heating Degree Days 0 2  
Month to date heating degree days 6 17  
Since 1 June heating degree days 203 198  
Since 1 July heating degree days 6 17  
Cooling Degree Days 11 3  
Month to date cooling degree days 38 16  
Year to date cooling degree days 78 55  
Since 1 June cooling degree days 74 51  
Growing Degree Days 25 (Base 50)    
Moisture  
Dew Point 65 °F    
Average Humidity 71    
Maximum Humidity 93    
Minimum Humidity 48    
Precipitation  
Precipitation 0.00 in 0.12 in 1.92 in (1951)
Month to date precipitation 0.02 0.75  
Year to date precipitation 16.33 19.03  
Sea Level Pressure  
Sea Level Pressure 29.89 in    
Wind  
Wind Speed 6 mph (WSW)    
Max Wind Speed 16 mph    
Max Gust Speed 22 mph    
Visibility 9 miles    
Events      
T = Trace of Precipitation, MM = Missing Value Source: NWS Daily Summary

Daily Weather History Graph

Daily Weather History Graph

Search for Another Location

Airport or City:

Trip Planner

Search our weather history database for the weather conditions in past years. The results will help you decide how hot, cold, wet, or windy it might be!

Date:

Astronomy

Jul. 06, 2013 Rise Set
Actual Time 4:47 AM EDT 8:24 PM EDT
Civil Twilight 4:09 AM EDT 9:02 PM EDT
Nautical Twilight 3:18 AM EDT 9:52 PM EDT
Astronomical Twilight 2:09 AM EDT 11:00 PM EDT
Moon 3:33 AM EDT (7/6) 6:59 PM EDT (7/6)
Length of Visible Light 16h 53m
Length of Day
15h 37m
Waning Crescent, 2% of the Moon is Illuminated
Jul 6
Waning Crescent
Jul 8
New
Jul 15
First Quarter
Jul 22
Full
Jul 29
Last Quarter

Hourly Weather History & Observations

Time (EDT) Temp. Heat Index Dew Point Humidity Pressure Visibility Wind Dir Wind Speed Gust Speed Precip Events Conditions
12:53 AM 66.9 °F - 64.9 °F 93% 29.95 in 7.0 mi South 3.5 mph - N/A   Clear
1:53 AM 66.9 °F - 64.9 °F 93% 29.96 in 8.0 mi Calm Calm - N/A   Scattered Clouds
2:53 AM 72.0 °F - 66.0 °F 81% 29.94 in 9.0 mi WSW 3.5 mph - N/A   Partly Cloudy
3:53 AM 72.0 °F - 66.0 °F 81% 29.95 in 9.0 mi SW 5.8 mph - N/A   Overcast
4:53 AM 69.1 °F - 66.0 °F 90% 29.95 in 7.0 mi Calm Calm - N/A   Clear
5:53 AM 71.1 °F - 66.9 °F 87% 29.94 in 7.0 mi Calm Calm - N/A   Partly Cloudy
6:53 AM 75.0 °F - 68.0 °F 79% 29.94 in 8.0 mi SW 4.6 mph - N/A   Clear
7:53 AM 77.0 °F - 69.1 °F 76% 29.94 in 8.0 mi WSW 6.9 mph - N/A   Clear
8:53 AM 77.0 °F - 69.1 °F 76% 29.93 in 8.0 mi WSW 6.9 mph - N/A   Overcast
9:53 AM 80.1 °F 82.7 °F 68.0 °F 67% 29.92 in 8.0 mi WSW 9.2 mph - N/A   Clear
10:53 AM 82.0 °F 84.9 °F 68.0 °F 62% 29.91 in 9.0 mi West 10.4 mph - N/A   Partly Cloudy
11:53 AM 82.9 °F 85.0 °F 66.0 °F 56% 29.90 in 9.0 mi West 12.7 mph 20.7 mph N/A   Scattered Clouds
12:53 PM 82.9 °F 84.6 °F 64.9 °F 54% 29.88 in 10.0 mi West 8.1 mph - N/A   Scattered Clouds
1:53 PM 84.0 °F 85.4 °F 64.0 °F 51% 29.87 in 10.0 mi West 11.5 mph 18.4 mph N/A   Clear
2:53 PM 84.0 °F 85.4 °F 64.0 °F 51% 29.86 in 10.0 mi West 8.1 mph - N/A   Scattered Clouds
3:53 PM 84.0 °F 84.9 °F 63.0 °F 49% 29.85 in 10.0 mi WSW 11.5 mph 18.4 mph N/A   Clear
4:53 PM 82.9 °F 84.0 °F 63.0 °F 51% 29.84 in 10.0 mi WSW 11.5 mph - N/A   Clear
5:53 PM 82.9 °F 84.0 °F 63.0 °F 51% 29.82 in 10.0 mi WSW 6.9 mph - N/A   Clear
6:53 PM 81.0 °F 82.5 °F 64.0 °F 56% 29.82 in 10.0 mi WSW 5.8 mph - N/A   Clear
7:53 PM 77.0 °F - 64.9 °F 66% 29.82 in 10.0 mi SSW 3.5 mph - N/A   Clear
8:53 PM 69.1 °F - 64.0 °F 84% 29.84 in 10.0 mi SSW 3.5 mph - N/A   Clear
9:53 PM 73.9 °F - 62.1 °F 66% 29.85 in 10.0 mi SW 4.6 mph - N/A   Clear
10:53 PM 68.0 °F - 62.1 °F 81% 29.86 in 10.0 mi SSW 3.5 mph - N/A   Clear
11:53 PM 72.0 °F - 62.1 °F 71% 29.85 in 10.0 mi SW 6.9 mph - N/A   Clear